Weather History for Mojave, CA

Change the Weather History Date:

Friday, March 21, 2014

  Actual Average Record
Temperature  
Mean Temperature 65 °F -  
Max Temperature 73 °F 67 °F 86 °F (1990)
Min Temperature 57 °F 40 °F 29 °F (1968)
Growing Degree Days 15 (Base 50)    
Moisture  
Dew Point 29 °F    
Average Humidity 28    
Maximum Humidity 38    
Minimum Humidity 18    
Precipitation  
Precipitation 0.00 in - - ()
Sea Level Pressure  
Sea Level Pressure 29.91 in    
Wind  
Wind Speed 14 mph (West)    
Max Wind Speed 22 mph    
Max Gust Speed 29 mph    
Visibility 10 miles    
Events      
Averages and records for this station are not official NWS values.
T = Trace of Precipitation, MM = Missing Value Source: NWS Daily Summary

Daily Weather History Graph

Daily Weather History Graph

Search for Another Location

Airport:

Trip Planner

Search our weather history database for the weather conditions in past years. The results will help you decide how hot, cold, wet, or windy it might be!

Date:

Astronomy

Mar. 21, 2014 Rise Set
Actual Time 6:54 AM PDT 7:05 PM PDT
Civil Twilight 6:29 AM PDT 7:30 PM PDT
Nautical Twilight 5:59 AM PDT 8:00 PM PDT
Astronomical Twilight 5:30 AM PDT 8:30 PM PDT
Moon No Moon Rise 10:00 AM PDT (3/21)
Length of Visible Light 13h 01m
Length of Day
12h 10m
Waning Gibbous, 74% of the Moon is Illuminated
Mar 21
Waning Gibbous
Mar 23
Last Quarter
Mar 30
New
Apr 7
First Quarter
Apr 15
Full

Hourly Weather History & Observations

Time (PDT) Temp. Dew Point Humidity Pressure Visibility Wind Dir Wind Speed Gust Speed Precip Events Conditions
12:10 AM 59.0 °F 24.8 °F 27% 29.94 in 10.0 mi NW 16.1 mph - N/A   Clear
12:35 AM 59.0 °F 23.0 °F 25% 29.93 in 10.0 mi WNW 13.8 mph 19.6 mph N/A   Clear
12:50 AM 59.0 °F 23.0 °F 25% 29.94 in 10.0 mi WNW 8.1 mph - N/A   Clear
1:05 AM 59.0 °F 23.0 °F 25% 29.94 in 10.0 mi Calm Calm - N/A   Clear
1:35 AM 59.0 °F 23.0 °F 25% 29.93 in 10.0 mi NW 8.1 mph - N/A   Clear
2:15 AM 59.0 °F 23.0 °F 25% 29.93 in 10.0 mi WNW 9.2 mph - N/A   Clear
2:20 AM 59.0 °F 24.8 °F 27% 29.93 in 10.0 mi West 8.1 mph - N/A   Clear
2:55 AM 57.2 °F 24.8 °F 29% 29.92 in 10.0 mi WNW 19.6 mph 24.2 mph N/A   Clear
3:35 AM 57.2 °F 26.6 °F 31% 29.91 in 10.0 mi West 16.1 mph - N/A   Clear
3:55 AM 57.2 °F 28.4 °F 33% 29.90 in 10.0 mi WNW 15.0 mph - N/A   Clear
4:10 AM 57.2 °F 28.4 °F 33% 29.90 in 10.0 mi West 16.1 mph - N/A   Clear
4:35 AM 59.0 °F 28.4 °F 31% 29.90 in 10.0 mi West 15.0 mph 24.2 mph N/A   Clear
4:55 AM 57.2 °F 30.2 °F 36% 29.90 in 10.0 mi West 19.6 mph 23.0 mph N/A   Clear
5:15 AM 57.2 °F 30.2 °F 36% 29.90 in 10.0 mi West 13.8 mph 19.6 mph N/A   Clear
5:25 AM 57.2 °F 30.2 °F 36% 29.90 in 10.0 mi West 13.8 mph 21.9 mph N/A   Clear
5:50 AM 57.2 °F 30.2 °F 36% 29.91 in 10.0 mi West 16.1 mph 23.0 mph N/A   Clear
6:00 AM 57.2 °F 30.2 °F 36% 29.91 in 10.0 mi West 12.7 mph 21.9 mph N/A   Clear
6:25 AM 57.2 °F 32.0 °F 38% 29.91 in 10.0 mi West 9.2 mph 17.3 mph N/A   Clear
6:55 AM 57.2 °F 32.0 °F 38% 29.92 in 10.0 mi WSW 11.5 mph 18.4 mph N/A   Clear
7:15 AM 57.2 °F 32.0 °F 38% 29.92 in 10.0 mi West 12.7 mph 23.0 mph N/A   Clear
7:35 AM 57.2 °F 32.0 °F 38% 29.93 in 10.0 mi West 8.1 mph 17.3 mph N/A   Clear
7:55 AM 59.0 °F 30.2 °F 34% 29.93 in 10.0 mi WNW 9.2 mph - N/A   Clear
8:10 AM 60.8 °F 32.0 °F 34% 29.93 in 10.0 mi WSW 9.2 mph - N/A   Clear
8:30 AM 60.8 °F 32.0 °F 34% 29.93 in 10.0 mi West 13.8 mph - N/A   Clear
8:55 AM 62.6 °F 32.0 °F 32% 29.94 in 10.0 mi West 9.2 mph - N/A   Clear
9:15 AM 64.4 °F 32.0 °F 30% 29.94 in 10.0 mi NW 11.5 mph - N/A   Clear
9:30 AM 66.2 °F 30.2 °F 26% 29.94 in 10.0 mi NW 13.8 mph - N/A   Clear
9:50 AM 66.2 °F 30.2 °F 26% 29.94 in 10.0 mi NW 13.8 mph - N/A   Clear
10:05 AM 68.0 °F 30.2 °F 24% 29.94 in 10.0 mi NW 11.5 mph 17.3 mph N/A   Clear
10:35 AM 68.0 °F 30.2 °F 24% 29.94 in 10.0 mi WNW 12.7 mph - N/A   Clear
10:55 AM 69.8 °F 28.4 °F 21% 29.94 in 10.0 mi WNW 12.7 mph - N/A   Unknown
11:15 AM 71.6 °F 28.4 °F 20% 29.94 in 10.0 mi WNW 15.0 mph 18.4 mph N/A   Clear
11:35 AM 71.6 °F 28.4 °F 20% 29.93 in 10.0 mi West 13.8 mph 18.4 mph N/A   Clear
11:55 AM 71.6 °F 28.4 °F 20% 29.93 in 10.0 mi WSW 13.8 mph 17.3 mph N/A   Clear
12:15 PM 71.6 °F 28.4 °F 20% 29.93 in 10.0 mi West 17.3 mph 20.7 mph N/A   Clear
12:35 PM 71.6 °F 30.2 °F 22% 29.92 in 10.0 mi West 17.3 mph 24.2 mph N/A   Clear
12:55 PM 71.6 °F 28.4 °F 20% 29.92 in 10.0 mi West 18.4 mph 24.2 mph N/A   Clear
1:15 PM 73.4 °F 28.4 °F 19% 29.91 in 10.0 mi WNW 18.4 mph - N/A   Clear
1:35 PM 73.4 °F 28.4 °F 19% 29.91 in 10.0 mi West 17.3 mph 23.0 mph N/A   Clear
1:55 PM 73.4 °F 26.6 °F 18% 29.90 in 10.0 mi WNW 18.4 mph 23.0 mph N/A   Clear
2:15 PM 73.4 °F 26.6 °F 18% 29.89 in 10.0 mi WNW 21.9 mph 26.5 mph N/A   Clear
2:35 PM 73.4 °F 26.6 °F 18% 29.89 in 10.0 mi WNW 18.4 mph 26.5 mph N/A   Clear
2:55 PM 71.6 °F 26.6 °F 19% 29.89 in 10.0 mi WNW 20.7 mph 24.2 mph N/A   Clear
3:15 PM 71.6 °F 26.6 °F 19% 29.88 in 10.0 mi WNW 20.7 mph 25.3 mph N/A   Clear
3:35 PM 69.8 °F 26.6 °F 20% 29.88 in 10.0 mi WNW 21.9 mph - N/A   Clear
3:55 PM 69.8 °F 28.4 °F 21% 29.88 in 10.0 mi WNW 18.4 mph 27.6 mph N/A   Clear
5:15 PM 68.0 °F 28.4 °F 23% 29.87 in 10.0 mi West 19.6 mph 27.6 mph N/A   Clear
5:25 PM 68.0 °F 28.4 °F 23% 29.87 in 10.0 mi West 18.4 mph 28.8 mph N/A   Clear
6:00 PM 68.0 °F 28.4 °F 23% 29.88 in 10.0 mi West 20.7 mph 25.3 mph N/A   Clear
6:35 PM 66.2 °F 28.4 °F 24% 29.88 in 10.0 mi WSW 16.1 mph 19.6 mph N/A   Clear
7:30 PM 62.6 °F 32.0 °F 32% 29.88 in 10.0 mi WSW 15.0 mph 20.7 mph N/A   Clear
9:00 PM 60.8 °F 32.0 °F 34% 29.91 in 10.0 mi WSW 10.4 mph - N/A   Clear
11:10 PM 59.0 °F 32.0 °F 36% 29.91 in 10.0 mi SW 16.1 mph 23.0 mph N/A   Clear
11:30 PM 59.0 °F 32.0 °F 36% 29.92 in 10.0 mi SW 12.7 mph 25.3 mph N/A   Clear
11:45 PM 57.2 °F 32.0 °F 38% 29.91 in 10.0 mi West 10.4 mph - N/A   Clear